Main page
METAR-TAF:

METAR-TAF

Airports :

Valencia, Spain

latitude: 39-37-26N, longitude: 0-28-26W, elevation: 127 m

Current weather observation

The report was made 50 minutes ago, at 08:00 UTC
Wind 2 kt from the South/Southwest with gusts up to 15 kt
Temperature 26°C
Humidity 58%
Pressure 1012 hPa
Visibility 10 km or more

METAR: LEBT 260800Z AUTO 20002G15KT 9999 // NCD 26/17 Q1012

Time: 10:50 (08:50 UTC)


TAF: missing

Weather observations and forecasts of more than 4000 airports (METAR and TAF reports).

The available stations are represented by yellow and red dots on the map.

Hover mouse over dot to see the name of the station.

Then click to see weather observations and forecasts.

To change the map : click on the green buttons with a black cross to zoom in, on the green button with a dash to zoom out, or on the green arrows for adjacent maps.


METAR-TAF: